RH
80 82 84 85 86 86 85 83 78 68 52 32 17 9 7 6 5 5 5 5 6 6 6 6 6 7 7 7 7 8 8 8 9 9 9 9 9 10 10 10 10 9 9 9 9 9 9 10 10 10 10 10 10 10 9 9 9 9 9 9 8 8 8
86 87 88 89 89 87 85 81 73 60 44 27 14 8 7 6 6 6 6 6 7 7 7 7 8 8 8 8 8 9 9 9 10 10 10 11 11 11 11 10 10 9 9 10 10 11 11 11 11 11 11 11 10 10 10 10 10 9 10 10 10 10 9
90 90 90 90 89 86 82 75 64 50 37 24 14 9 7 7 7 7 7 7 7 8 8 8 9 9 9 10 10 10 11 11 11 12 12 11 11 10 10 10 10 10 11 12 12 12 12 12 12 11 11 11 10 10 10 10 10 9 10 10 10 10 10
94 93 92 91 87 83 76 66 55 43 31 21 13 9 8 8 8 8 8 9 9 9 9 9 10 10 10 11 11 12 12 12 13 12 11 11 10 10 10 11 12 12 13 14 13 13 12 11 11 11 10 10 10 10 9 9 9 9 9 10 10 10 10
96 94 92 88 83 76 67 56 46 36 26 18 12 10 9 9 9 9 9 10 10 10 11 11 11 12 12 13 13 14 14 13 12 11 10 11 11 11 12 13 14 14 14 14 13 13 12 11 11 10 10 10 9 9 9 9 9 9 9 9 9 10 10
96 93 88 82 76 69 59 49 40 31 22 17 13 11 11 11 11 11 11 11 12 12 12 12 13 13 14 15 15 15 13 12 11 11 11 12 13 13 14 14 15 14 14 13 13 12 12 11 10 10 10 9 9 9 9 9 8 8 9 9 9 10 11
93 88 83 77 69 61 51 42 33 25 19 15 13 12 12 12 12 13 13 13 13 13 14 14 15 15 16 16 15 13 12 11 12 12 13 14 14 15 15 15 15 14 14 13 13 13 12 11 11 10 10 9 9 9 9 9 9 8 9 10 10 10 12
89 82 75 68 60 50 42 34 27 21 17 15 14 13 14 14 14 14 15 15 15 15 16 16 17 17 16 15 13 13 13 13 14 14 15 15 16 16 16 16 16 15 15 15 14 14 13 12 11 10 10 10 9 9 9 9 9 9 9 11 11 12 14
81 73 64 56 47 40 34 28 23 19 17 15 15 16 16 16 16 16 16 16 17 17 18 18 18 17 16 15 14 14 15 15 15 16 16 17 17 17 17 17 17 16 16 15 15 14 13 12 11 10 9 9 9 9 10 10 10 11 11 13 14 15 18
69 60 52 44 38 33 29 25 22 19 18 17 17 17 18 18 18 18 18 18 18 19 20 20 18 17 16 16 16 16 16 17 17 17 18 18 18 19 18 18 17 16 15 14 13 13 12 11 10 10 9 9 10 10 11 11 12 13 14 16 17 17 19
57 50 44 39 35 31 28 25 22 21 19 19 19 19 20 20 19 19 19 20 20 21 21 20 18 18 18 18 18 18 18 19 19 20 21 21 20 20 19 17 16 15 13 12 12 11 11 10 9 10 10 10 11 12 13 14 15 16 18 19 20 20 21
51 46 41 37 34 30 27 25 24 23 22 21 21 21 21 21 21 20 21 22 22 23 22 21 20 20 20 20 20 20 21 22 23 23 23 22 21 19 17 15 14 13 12 11 11 10 10 10 10 10 11 12 14 16 17 18 19 21 22 22 23 23 23
49 45 41 37 34 31 29 27 26 25 24 24 24 23 22 22 22 22 23 24 24 24 23 22 22 22 22 23 23 24 25 25 24 24 22 20 18 16 15 13 12 12 11 10 11 10 10 11 12 12 14 17 20 21 22 23 24 25 25 26 26 26 26
48 44 41 38 36 34 31 30 28 27 27 27 25 25 24 23 24 25 26 27 26 25 25 24 24 25 25 26 26 26 26 24 22 21 18 17 15 13 13 12 11 11 11 11 12 11 10 12 14 16 18 22 25 26 26 27 27 27 28 28 28 27 27
48 45 42 40 37 35 32 30 30 29 29 28 27 26 26 26 27 28 28 28 27 27 27 27 27 27 27 27 26 24 23 21 19 17 15 14 13 12 12 11 11 12 13 13 13 12 12 14 18 22 24 27 29 29 29 29 28 29 29 29 28 28 27
48 45 42 39 36 34 32 31 31 31 30 29 28 27 28 28 29 30 30 29 29 29 29 30 29 29 27 25 24 22 20 18 16 15 14 13 12 11 11 11 12 13 14 15 15 15 18 21 24 27 28 29 31 30 29 30 29 29 30 29 29 28 27
47 44 41 39 36 35 34 32 32 32 31 30 29 29 30 30 31 31 31 31 31 32 32 31 29 27 26 23 21 19 17 15 14 13 12 12 11 12 12 12 15 15 16 18 20 22 24 26 28 30 30 31 31 31 31 31 29 30 31 30 29 28 28
46 44 41 39 37 36 35 34 34 33 32 31 31 31 32 32 33 33 33 34 34 34 32 30 28 25 23 21 19 17 15 14 13 12 12 12 12 12 13 16 18 18 19 23 26 28 29 29 29 30 30 31 32 32 33 33 32 31 32 31 30 28 28
45 44 42 39 37 36 36 36 35 34 33 33 33 33 34 34 35 35 36 36 35 33 30 28 25 23 20 18 16 14 14 13 13 13 13 14 14 14 16 19 20 21 23 26 29 30 31 31 30 29 29 30 33 35 36 36 35 34 33 32 30 29 29
46 44 41 39 38 38 38 37 36 35 34 35 35 36 36 37 38 39 39 37 34 31 28 25 22 19 17 15 14 14 14 14 15 15 15 16 16 16 18 21 21 23 26 28 29 31 32 30 29 29 29 31 35 39 41 40 38 36 34 32 29 30 31
46 44 42 41 41 40 39 38 37 36 37 38 38 39 40 41 41 39 37 34 30 27 24 21 18 16 15 14 14 14 15 16 17 17 17 17 18 18 19 21 22 23 26 28 29 30 30 29 28 29 33 37 41 44 44 42 40 37 36 36 34 33 32
45 45 45 44 43 42 40 39 38 39 41 41 42 43 43 42 40 36 32 29 26 22 20 17 15 15 15 15 15 15 16 17 18 18 18 18 18 18 19 20 21 22 23 24 26 27 28 28 27 30 38 45 48 47 45 43 41 39 40 42 41 40 36
49 49 48 46 44 42 40 41 42 43 45 45 45 45 43 39 35 31 27 25 22 19 17 15 15 15 15 15 16 17 17 18 18 17 17 18 19 20 21 21 22 22 23 23 23 24 24 26 29 34 43 49 50 48 44 43 43 43 44 45 48 50 47
52 50 48 46 44 43 43 45 47 48 48 48 46 43 38 34 30 27 23 20 18 16 15 15 15 15 16 17 17 18 18 17 17 17 18 20 22 23 24 25 26 26 26 26 24 23 23 25 32 41 47 50 49 45 42 44 46 49 51 53 55 59 60
53 50 47 45 45 46 48 49 50 50 49 46 42 37 33 30 26 23 20 18 16 16 15 15 15 15 16 16 17 17 17 16 17 19 21 23 26 27 29 31 32 32 31 30 28 27 27 30 38 47 51 49 46 42 42 46 51 54 59 62 63 65 69
50 47 46 46 48 51 52 53 51 49 44 41 37 33 29 26 23 20 18 16 16 16 15 15 15 15 15 16 17 18 18 18 20 22 24 27 31 34 37 39 39 38 36 34 33 33 33 37 44 50 49 43 39 39 45 51 55 60 66 70 70 70 74
49 48 49 51 53 54 54 52 48 43 39 36 33 29 25 22 19 17 17 16 15 16 15 15 15 15 16 17 19 20 20 21 23 26 30 35 40 43 46 45 43 40 39 38 39 38 38 43 48 48 43 36 33 38 47 54 58 64 72 76 75 74 78
51 53 55 56 56 55 52 47 42 38 35 31 27 24 21 18 17 16 16 15 15 15 15 14 15 15 17 18 20 22 24 27 30 35 40 45 49 50 50 47 43 42 42 42 43 43 44 47 48 43 36 33 34 39 47 55 61 68 75 80 79 77 79
57 60 60 58 55 51 47 42 38 34 31 27 23 20 18 16 16 16 16 15 16 15 14 14 15 15 17 19 21 23 28 34 40 45 50 53 55 54 51 45 42 43 46 48 48 48 48 46 42 37 35 36 38 41 47 53 60 67 74 78 79 78 79
62 62 58 55 51 46 43 39 35 30 26 23 20 18 17 17 17 17 16 16 16 15 14 15 15 16 18 21 24 28 35 43 49 52 55 57 58 57 53 48 44 45 50 53 51 47 44 39 36 35 38 40 41 44 47 51 57 63 67 71 72 74 75
62 58 54 50 47 44 40 35 29 24 21 19 18 18 19 19 18 17 17 16 16 16 15 16 18 19 21 25 30 37 43 48 50 52 55 57 59 58 56 53 52 53 53 50 44 39 35 32 32 33 36 40 43 44 45 47 51 56 58 60 62 62 64
58 54 50 46 43 38 33 27 22 20 19 18 19 20 20 19 18 16 16 17 17 17 18 19 20 22 26 32 39 42 43 42 43 48 54 58 60 61 60 60 61 58 49 40 34 31 29 28 28 29 31 36 41 44 45 45 46 48 49 50 50 50 51
54 49 44 40 34 28 24 21 19 19 19 19 20 21 20 19 17 15 16 18 19 19 20 21 23 27 33 39 40 36 31 31 37 46 54 59 61 64 65 63 57 48 38 32 31 30 28 26 27 27 28 32 38 44 46 44 45 46 47 46 46 46 47
48 42 35 30 25 21 20 20 20 20 21 20 20 20 19 17 15 15 17 20 20 21 23 26 29 34 38 37 30 23 21 27 37 48 56 60 62 63 60 53 43 36 33 33 32 31 28 27 27 27 26 29 35 41 45 45 46 48 49 49 50 50 48
41 34 27 22 21 20 21 21 21 20 20 19 19 19 18 16 15 15 18 20 23 27 31 35 37 36 31 24 18 16 19 26 34 44 50 53 53 51 44 38 34 33 34 34 33 32 31 28 27 27 27 27 30 35 41 45 47 49 51 52 53 52 49
34 26 21 20 21 23 23 22 20 19 19 18 18 18 17 16 16 18 20 23 28 35 42 43 38 29 20 16 16 19 21 24 27 33 36 37 37 35 32 32 34 35 34 34 33 33 33 31 28 27 27 27 27 30 35 41 44 47 50 52 52 49 45
Wind_Speed
36 36 36 36 35 35 35 34 32 29 27 27 28 28 29 29 29 29 29 30 30 30 30 31 31 32 32 33 34 35 35 36 37 37 38 39 39 40 41 42 44 46 47 46 45 46 46 45 45 45 46 47 48 48 49 49 50 51 52 52 52 52 52
36 36 36 35 34 34 33 32 29 27 26 27 28 29 29 29 29 30 30 30 30 31 31 31 32 32 33 34 35 35 36 37 37 38 38 39 40 40 41 42 44 45 47 47 47 47 48 48 48 49 49 50 51 51 51 51 51 52 53 54 54 54 53
36 36 35 34 33 31 30 28 26 25 26 27 28 29 29 29 30 30 30 30 31 31 32 32 33 33 34 34 35 36 37 37 38 38 39 39 40 40 41 42 44 46 48 49 50 50 50 50 51 51 52 53 53 54 54 54 54 54 54 54 55 55 55
35 34 33 32 30 29 27 26 25 25 26 27 28 29 29 29 30 30 30 31 31 31 32 33 34 34 35 35 36 37 38 38 39 39 39 39 39 40 42 43 45 47 49 51 52 52 53 53 53 53 54 55 56 56 56 57 57 57 57 56 56 56 57
34 33 31 29 27 25 24 24 24 25 26 27 28 29 29 30 30 30 31 31 31 32 33 34 34 35 36 36 37 38 38 39 39 39 39 39 40 42 43 45 47 48 50 52 54 54 55 55 55 55 55 57 58 58 58 59 59 59 59 58 57 58 58
32 30 28 26 25 24 23 23 24 26 27 28 29 29 30 30 30 31 31 31 32 33 34 35 35 36 37 37 38 38 38 38 39 39 40 41 43 44 46 47 49 50 52 53 55 56 57 57 58 58 58 58 59 60 61 61 61 61 61 60 60 59 58
29 27 25 24 23 23 23 24 25 26 28 29 29 30 30 30 31 31 31 32 33 34 34 35 36 37 38 38 38 38 38 39 40 41 43 44 45 47 48 49 50 52 53 54 56 57 58 59 60 60 60 60 61 62 62 63 63 62 62 62 61 60 59
26 24 23 22 22 22 23 24 26 27 29 29 30 30 31 31 31 31 32 33 34 35 35 36 37 38 38 38 38 38 39 40 42 44 45 46 48 49 51 52 53 54 55 56 58 59 60 61 62 62 62 61 62 63 63 64 64 63 63 62 61 60 58
23 22 21 21 21 22 24 25 27 29 30 30 31 31 31 31 32 32 33 34 35 36 36 37 37 38 38 38 39 40 41 43 45 46 48 49 51 52 53 55 56 57 58 59 60 61 62 63 63 63 63 62 62 63 63 64 64 64 63 62 61 59 57
20 20 20 21 22 23 25 27 29 30 31 31 31 31 32 32 33 34 35 35 36 37 37 38 38 38 38 39 40 41 43 45 47 49 51 52 54 55 56 57 58 59 60 61 62 62 63 64 63 62 62 63 62 62 63 64 64 63 62 61 61 59 56
18 19 20 22 23 25 27 28 30 31 31 32 32 32 33 33 34 35 36 36 37 38 38 38 38 39 40 41 43 44 46 47 49 51 53 55 57 58 59 60 60 61 61 62 63 64 64 64 63 62 62 62 62 62 62 62 62 62 61 60 59 58 55
19 20 22 23 25 26 28 29 30 31 32 33 33 34 34 35 35 36 37 38 38 39 39 39 40 41 42 43 45 47 49 50 52 54 55 57 58 59 60 61 61 62 62 63 64 64 63 62 62 62 61 61 61 60 60 60 59 59 58 57 57 56 54
21 22 23 25 27 28 29 30 31 32 33 34 35 35 36 36 37 38 38 39 39 40 40 41 41 43 44 45 47 49 51 53 54 55 56 57 58 59 60 61 61 61 62 63 64 64 62 61 61 61 60 59 58 58 58 57 56 55 55 54 53 53 53
22 23 25 27 28 29 30 31 32 33 34 34 35 36 36 37 38 38 39 40 40 41 41 42 43 45 46 48 49 51 53 55 56 57 58 58 59 59 60 60 60 60 60 61 62 63 62 61 60 59 58 56 56 55 55 54 53 52 51 51 51 51 51
24 25 27 28 29 30 32 32 33 34 34 35 36 37 37 38 39 39 40 40 41 42 43 45 46 48 49 50 52 53 55 56 57 58 59 59 59 60 60 59 58 58 58 59 61 61 61 59 58 57 55 53 53 53 52 51 50 49 49 49 49 49 49
26 27 28 29 30 32 33 33 34 34 35 36 37 38 39 40 40 41 41 42 44 45 46 47 49 50 51 52 54 55 56 58 59 59 60 60 60 60 59 58 57 56 56 57 58 58 56 55 54 53 52 51 51 51 50 49 48 47 47 48 48 47 47
27 29 30 31 32 32 33 34 34 35 36 37 39 40 41 42 42 43 43 44 46 47 48 49 51 52 54 55 56 57 58 59 60 61 61 60 60 59 57 55 54 54 53 53 53 53 52 51 50 49 49 48 49 49 49 48 47 46 46 47 47 46 46
29 30 31 32 32 32 33 35 36 36 37 39 40 41 42 43 44 45 46 47 48 49 50 51 53 54 56 57 58 58 59 59 60 60 60 59 58 56 54 52 51 52 51 49 48 48 48 48 47 47 46 46 47 47 47 47 46 45 45 46 46 45 45
31 31 32 32 33 34 34 36 37 38 39 40 42 43 44 45 46 47 48 49 50 51 52 53 54 56 57 58 58 58 58 58 58 58 58 57 55 53 51 50 50 50 49 47 46 45 45 46 46 45 45 45 45 45 45 45 45 45 45 45 45 44 44
31 32 33 33 34 35 36 37 38 39 41 42 44 45 46 47 48 49 50 51 52 52 54 55 56 56 56 57 57 57 56 56 56 56 55 54 53 52 51 50 50 50 48 47 46 44 43 44 44 45 44 44 43 43 43 43 43 43 44 44 44 43 43
32 33 34 34 35 36 37 37 39 40 42 44 46 47 48 49 51 52 52 53 53 54 55 56 56 56 56 56 56 55 54 53 53 53 53 53 52 52 52 52 51 50 49 48 46 45 44 43 43 43 43 42 42 41 41 41 41 42 42 42 42 42 41
33 34 34 35 36 37 38 39 40 42 44 46 48 50 51 52 52 53 54 55 55 55 55 56 55 55 55 55 54 54 53 52 51 52 52 52 53 53 53 53 53 52 51 49 47 46 44 43 42 41 41 40 40 40 39 39 39 39 39 39 40 40 40
34 35 35 35 36 37 39 40 42 44 46 48 50 51 52 53 54 55 56 56 56 56 56 56 56 55 54 54 53 52 51 51 51 52 52 52 53 54 54 54 53 51 50 49 48 46 44 43 41 40 39 39 38 38 37 37 37 37 38 38 38 38 38
35 35 35 35 36 38 40 42 44 45 47 49 51 52 53 54 55 56 57 57 57 57 57 56 56 55 54 53 52 51 51 52 52 52 52 52 53 53 53 52 51 49 48 47 46 44 43 41 40 39 38 37 36 36 35 34 35 35 36 36 36 36 36
35 35 35 36 37 39 41 43 45 47 49 51 52 53 54 55 56 57 58 58 58 57 57 57 57 56 54 53 52 52 52 52 52 52 52 52 52 51 50 49 48 46 45 45 43 41 40 39 38 37 36 34 34 33 33 33 33 33 34 34 35 35 33
35 36 37 39 40 41 43 45 46 48 50 52 53 54 55 56 57 57 57 57 57 58 58 58 58 56 54 53 52 52 52 52 52 52 51 50 49 48 47 46 45 44 43 42 40 39 38 37 36 35 34 32 31 31 31 31 32 32 32 33 33 33 31
36 38 39 41 43 44 45 46 46 48 51 53 55 55 56 57 57 57 57 58 58 58 58 58 56 54 53 51 51 52 52 52 51 51 50 48 47 46 44 43 42 42 41 39 38 37 36 36 35 34 32 31 30 30 29 30 31 31 31 31 32 31 28
38 40 42 44 45 46 47 47 48 50 52 54 56 57 58 58 58 58 58 58 58 57 56 55 54 52 50 49 49 50 50 50 49 48 47 46 46 44 43 41 40 39 39 38 37 36 36 35 34 33 31 30 30 29 28 29 30 31 30 30 30 29 27
41 42 44 46 46 48 49 49 50 52 55 56 58 58 58 58 58 58 58 57 56 55 55 53 52 51 50 49 49 48 47 46 46 45 44 44 44 44 43 41 39 38 37 36 36 35 35 34 32 31 30 29 29 28 28 29 30 30 29 29 29 28 26
43 44 46 47 48 50 51 53 54 56 57 58 58 57 57 57 57 57 56 55 54 54 53 52 51 50 49 48 48 47 45 44 44 43 42 42 41 42 42 41 39 37 35 35 35 34 33 32 31 30 29 28 28 27 27 28 29 29 29 28 28 27 25
45 46 48 50 51 53 54 55 56 57 58 58 57 56 56 55 55 55 54 53 53 53 52 51 50 50 48 47 46 45 44 43 42 41 40 40 40 39 40 39 38 36 34 33 33 32 31 31 30 29 28 27 27 26 26 27 27 28 28 28 28 27 26
47 49 51 52 54 55 55 55 56 57 57 58 57 55 54 53 53 53 52 52 52 52 51 51 50 49 47 45 45 44 42 41 40 39 38 38 38 37 37 37 36 35 33 32 31 31 30 29 29 28 27 26 25 25 25 26 26 26 26 27 27 27 26
49 51 52 54 54 55 55 56 56 57 57 57 55 53 52 51 51 51 51 51 51 51 51 50 49 47 45 45 44 42 40 39 37 36 36 36 36 35 35 34 34 33 31 31 30 30 29 28 28 27 26 25 24 24 24 24 24 24 25 25 25 26 25
49 50 52 54 54 54 54 55 56 56 56 55 53 52 51 51 51 51 51 51 51 51 50 48 47 46 45 43 41 39 37 35 34 33 34 34 33 33 32 31 31 30 30 29 29 29 28 27 27 27 26 24 24 24 24 24 24 24 24 24 24 25 25
50 51 52 53 53 53 53 55 56 55 54 53 51 50 50 51 52 52 51 51 50 48 47 46 46 45 43 40 38 35 33 32 31 31 31 31 30 29 29 28 28 29 29 29 28 27 27 26 26 26 25 24 24 24 24 24 24 24 24 24 24 25 25
53 53 52 52 51 51 52 53 54 53 52 51 49 50 51 52 53 52 51 49 47 45 45 44 43 42 40 37 34 32 30 29 28 28 28 28 27 27 26 27 27 28 28 28 28 27 26 26 26 25 25 25 24 24 24 24 24 24 24 23 24 24 24
Wind_Direction
267 272 275 278 281 282 283 282 282 284 285 286 286 285 285 284 284 283 283 283 283 283 284 285 286 286 287 288 288 289 289 290 291 292 292 293 294 295 295 295 296 296 296 297 298 299 300 300 299 298 297 296 295 294 294 293 292 292 291 290 290 289 288
268 272 275 278 279 280 280 280 281 283 283 284 284 283 283 282 282 282 282 283 283 284 285 286 287 287 288 288 289 289 290 291 292 293 293 294 294 295 295 295 295 295 296 296 298 299 299 299 299 298 297 296 295 294 293 293 292 291 291 290 290 289 289
269 272 274 275 275 277 278 279 281 281 281 282 281 281 281 281 281 282 282 283 283 284 285 286 287 287 288 289 289 290 291 291 292 292 293 293 294 294 294 295 295 295 296 296 297 298 298 298 298 297 297 296 295 294 293 292 291 290 289 289 289 289 288
268 269 271 271 273 275 277 279 280 280 280 280 280 280 280 281 281 281 282 283 284 285 286 286 287 287 288 289 289 290 290 291 291 292 292 293 293 293 294 294 295 296 296 297 297 298 298 298 297 297 296 296 295 294 293 292 291 290 289 288 288 287 286
266 267 269 271 274 276 278 279 280 280 280 280 280 280 280 281 281 282 283 284 285 286 286 287 287 288 288 289 289 290 290 291 291 292 292 292 293 293 294 294 295 296 296 297 297 298 298 297 297 297 296 295 294 294 293 291 290 289 289 288 287 286 286
264 266 269 272 275 277 279 280 281 281 281 280 280 280 281 281 282 283 284 285 286 286 287 287 288 288 289 289 289 290 290 290 291 291 291 292 293 293 294 295 295 296 296 297 297 297 297 297 297 296 295 295 293 293 292 290 289 289 288 287 286 285 285
263 267 271 274 276 278 279 280 280 280 280 280 280 281 281 282 283 284 285 285 286 286 286 287 287 288 288 288 288 289 289 289 290 290 291 292 292 293 294 294 295 295 296 296 296 297 297 296 296 295 295 294 292 292 291 290 289 288 287 286 285 285 284
265 269 273 275 277 279 280 280 281 280 280 281 280 281 281 281 283 284 284 285 285 285 286 286 287 287 288 288 288 289 289 290 290 291 291 292 293 293 294 294 295 295 295 295 296 296 295 295 294 294 293 293 291 290 289 289 288 287 286 285 285 284 284
267 271 275 278 279 281 281 281 281 280 280 280 280 280 281 282 284 284 285 285 285 285 286 287 287 288 288 289 290 290 291 291 292 292 292 293 294 294 295 295 295 295 295 295 295 294 294 293 293 293 292 291 290 289 288 287 286 286 286 285 285 284 284
269 273 277 279 279 280 280 280 280 279 279 280 280 282 283 284 285 285 285 285 286 286 287 287 288 289 289 290 290 291 291 292 292 293 294 294 295 295 295 295 295 295 295 294 294 293 292 292 292 291 290 289 288 287 287 286 286 286 285 285 285 284 284
273 275 275 277 278 279 278 278 278 278 279 281 282 283 284 285 285 285 285 286 287 288 288 288 289 289 290 291 291 291 291 292 292 293 294 295 295 295 296 296 295 295 295 294 293 292 292 291 291 290 289 288 288 287 286 285 285 286 285 285 285 284 283
273 274 276 278 278 278 278 278 279 280 281 283 283 284 285 285 285 286 287 288 288 289 289 289 290 290 291 291 292 292 292 292 293 293 294 294 295 295 296 296 295 295 295 294 293 292 291 291 290 289 288 288 287 286 286 285 286 286 285 285 285 284 283
274 276 278 279 279 279 280 280 281 282 282 283 284 285 286 286 286 287 287 288 289 289 290 290 290 291 291 292 292 292 293 293 293 294 294 295 295 295 295 295 295 295 294 293 292 292 292 291 290 289 289 288 287 286 286 286 286 285 285 285 284 283 282
276 278 278 279 279 280 280 280 281 281 281 283 284 285 285 286 286 287 288 288 289 289 290 291 291 292 292 293 293 294 294 295 296 296 296 296 296 296 296 295 295 295 294 293 292 292 292 291 290 289 289 288 287 287 286 286 286 285 285 284 283 282 282
277 278 278 279 280 280 280 280 280 281 283 284 284 284 285 285 286 288 289 290 291 292 293 294 294 295 296 296 297 297 298 298 298 298 298 298 297 297 296 296 295 294 293 292 291 291 291 291 290 289 289 288 287 286 286 286 286 286 285 284 282 282 281
277 278 279 280 280 280 280 281 282 284 285 285 285 285 286 288 290 291 293 294 295 295 296 297 298 298 299 300 300 300 300 300 299 299 299 298 298 297 296 296 295 293 291 290 290 290 290 289 289 289 289 289 288 287 287 287 287 286 284 283 282 281 280
279 280 280 280 280 280 282 284 285 286 286 286 287 288 290 292 293 294 295 296 296 297 298 299 300 301 301 302 302 301 301 300 300 299 299 298 297 297 296 296 294 291 290 289 289 289 289 289 289 289 289 289 289 288 288 288 287 286 284 283 282 281 280
280 280 280 280 282 284 286 287 287 287 287 288 289 291 292 294 295 296 296 297 298 299 301 301 302 302 302 302 301 300 300 299 299 299 298 298 297 297 297 295 292 291 291 290 289 289 289 290 290 289 289 289 288 288 288 288 287 286 284 283 282 282 281
280 281 283 285 287 288 287 287 287 288 289 290 291 293 294 295 296 297 298 299 300 301 302 302 302 302 302 301 300 300 300 300 299 299 299 298 298 298 297 295 293 292 292 291 290 290 290 290 290 290 289 288 288 287 287 287 287 286 285 284 283 282 282
282 285 287 288 288 288 287 287 288 289 290 292 293 294 295 296 297 298 299 300 302 302 302 302 302 301 301 301 301 301 301 301 300 299 299 299 299 299 298 295 295 294 294 293 293 292 291 290 290 290 289 288 287 287 287 286 286 285 285 284 283 282 282
285 287 288 288 287 286 286 287 289 290 292 293 295 296 297 298 299 300 301 302 303 303 302 302 302 302 302 302 302 302 301 301 300 299 300 300 300 299 298 297 296 296 295 295 294 292 291 290 290 289 288 288 287 287 287 286 286 285 284 284 283 282 281
287 287 286 286 286 286 287 289 291 293 294 296 297 298 299 300 301 301 302 303 303 303 303 303 304 304 304 303 303 302 301 300 300 300 301 301 300 299 298 297 296 296 296 294 293 291 291 290 289 289 288 288 288 288 287 286 285 284 283 282 281 281 280
285 284 284 285 286 287 289 292 294 295 296 297 298 299 300 302 302 302 303 304 304 305 304 304 305 304 303 303 302 302 302 301 301 301 301 300 299 298 297 297 297 297 296 294 292 290 290 290 290 290 289 289 289 288 287 286 284 282 282 281 280 280 280
283 284 284 285 287 289 292 294 296 297 298 299 299 300 301 302 303 304 304 305 305 305 305 305 305 304 304 303 303 303 302 301 301 301 300 299 298 297 297 297 297 297 296 294 292 291 289 289 289 289 290 289 289 288 286 284 283 281 281 280 280 280 280
284 285 286 287 290 292 294 296 297 298 299 299 300 301 302 303 303 304 304 305 305 306 306 305 305 304 304 304 303 303 301 301 300 300 299 298 297 297 297 297 297 296 295 294 294 292 290 289 289 289 289 289 288 287 285 283 282 281 280 279 280 279 281
286 287 289 291 293 294 295 296 297 298 299 300 301 302 302 303 303 304 304 305 306 306 305 305 304 304 304 304 303 302 300 300 300 299 298 297 296 296 296 297 296 296 296 296 295 293 291 290 289 289 289 288 286 285 284 282 280 279 279 279 280 280 282
289 290 292 293 294 296 296 298 299 300 300 301 301 302 302 303 304 304 305 305 305 304 303 302 302 302 303 303 302 301 300 299 299 298 297 296 295 295 295 296 297 297 297 297 296 294 291 289 289 289 289 288 286 284 282 280 279 278 279 279 279 281 283
291 293 294 295 296 297 298 300 301 301 301 302 302 302 303 303 303 303 303 303 302 301 300 300 300 301 301 301 299 298 298 297 296 296 296 296 295 295 296 297 297 297 297 296 294 292 290 289 289 290 289 287 286 283 281 279 278 278 278 279 279 281 282
293 294 295 297 298 300 301 303 303 303 302 302 302 302 302 302 302 302 302 302 301 300 299 299 300 300 300 299 297 296 296 295 294 295 295 295 295 295 296 297 296 296 295 294 292 290 290 290 290 290 288 286 285 283 281 279 278 278 278 278 279 280 281
295 297 298 299 301 302 304 305 304 302 301 300 300 301 301 301 302 302 301 301 299 299 299 299 299 299 299 298 297 296 296 295 294 293 293 292 292 292 294 295 295 294 293 291 290 291 291 290 290 289 287 285 284 282 280 278 277 277 278 278 278 279 279
298 300 301 302 303 303 303 303 302 301 300 300 300 301 301 301 301 300 300 299 298 297 298 298 298 298 298 297 296 296 296 294 293 292 291 289 289 289 291 291 292 292 292 291 291 292 291 290 289 288 286 285 283 280 279 278 277 277 277 277 277 278 278
301 301 301 302 302 302 302 301 300 299 299 299 300 300 300 300 299 298 298 297 296 296 297 298 298 298 297 297 296 296 295 293 291 290 288 287 286 287 288 289 290 291 292 293 293 292 291 290 289 288 286 284 281 279 277 277 277 276 276 276 276 277 277
300 300 300 301 301 301 301 301 299 298 298 299 299 299 299 298 297 297 296 296 296 297 297 298 298 297 297 296 295 295 293 291 289 287 285 284 284 285 286 288 289 290 292 293 293 292 292 292 290 288 286 283 280 278 276 275 276 276 275 276 276 276 276
298 299 300 300 300 300 300 299 298 298 298 299 299 299 298 297 297 297 297 297 297 298 298 297 297 296 296 295 295 294 292 289 287 285 283 283 283 284 285 286 287 289 291 291 292 292 292 292 291 289 287 283 279 276 275 275 275 275 275 276 276 277 277
298 298 298 298 298 298 298 297 297 297 298 298 299 299 298 298 298 298 297 297 297 297 297 296 296 296 296 295 295 293 291 289 286 284 283 282 283 283 284 284 286 288 289 290 291 292 292 292 291 290 288 284 280 277 276 276 276 277 277 277 277 276 277
298 298 297 297 298 297 297 296 296 297 298 299 299 299 298 298 297 297 296 296 295 295 295 295 295 295 295 295 294 293 292 289 287 285 283 283 282 282 282 283 284 286 288 289 291 291 291 291 290 289 288 286 283 281 279 279 279 278 278 278 277 276 276